sat.trackr.live / text

‹ back to catalog

INTELSAT 15 (IS-15)

NORAD 36106 · 2009-067A

PAYLOAD ACTIVE UNKNOWN

§ Identity

Operator
Country
ITSO
Launch date
2009-11-30
Launch site
TYMSC
Launch vehicle
Mass (kg)
RCS (m²)
12.59

Purposes: comms

External: N2YO · Heavens-Above · Gunter

§ Orbital elements

Epoch: 2026-05-25T02:26:15.328320Z

Period
1,436.10 min
Inclination
0.0341°
Eccentricity
0.0002225
Mean motion
1.00271763 rev/d
Perigee alt
35,777.2 km
Apogee alt
35,796.0 km
Semi-major
42,164.7 km
B*
0.0000e+0
RAAN
84.3109°
Arg perigee
335.7199°
Mean anomaly
304.3726°
Rev number
4,099

§ Raw data

INTELSAT 15 (IS-15)1 36106U 09067A   26145.10156630 -.00000187  00000+0  00000+0 0  99932 36106   0.0341  84.3109 0002225 335.7199 304.3726  1.00271763 40993

JSON: /api/v1/satellites/36106 · /tle

For live sub-satellite position, see the globe view (requires WebGL).

§ Visibility from observer

Set your observer location to see the next 7 days of passes ≥ 10°. The values pass through the URL so the page stays shareable.

No JS? Fill the form by hand. The geolocation button needs JavaScript.